Location: Bothwell
(42.3833°S, 147.0000°E)
Time: 19:40:56
(UTC+11:00)

BEESAT - Pass Details

Date: 27 September 2022
Orbit: 699 x 706 km, 98.5° (Epoch: 25 November)

Event Time Altitude Azimuth Distance (km) Brightness Sun altitude
Exits shadow 18:36:24 - 66° (ENE) 2,649 ? -5.0°
Reaches altitude 10° 18:37:58 10° 78° (ENE) 2,190 ? -5.3°
Maximum altitude 18:41:03 17° 118° (ESE) 1,756 ? -5.9°
Drops below altitude 10° 18:44:09 10° 158° (SSE) 2,210 ? -6.4°
Sets 18:47:07 0° 177° (S) 3,139 ? -7.0°
